Home   Weather   Germany   Mörfelden-Walldorf   Past weeks
Flag for Germany

Past Weather in Mörfelden-Walldorf, Hesse, Germany — Yesterday and Last 2 Weeks

Currently: 75 °F. Passing clouds. (Weather station: Frankfurt-M-Flughafen Airport, Germany). See more current weather

Past Weather in Mörfelden-Walldorf — Graph

°F

Mörfelden-Walldorf Temperature Yesterday

Maximum temperature yesterday: 88 °F (at 2:50 pm)
Minimum temperature yesterday: 66 °F (at 6:20 am)
Average temperature yesterday: 79 °F

High & Low Weather Summary for the Past Weeks

 TemperatureHumidityPressure
High100 °F (Aug 4, 2:50 pm)100% (Jul 30, 4:20 am)30.30 "Hg (Jul 30, 4:20 am)
Low57 °F (Jul 30, 5:50 am)19% (Aug 10, 6:20 pm)29.83 "Hg (Aug 4, 6:20 pm)
Average75 °F45%30.08 "Hg
* Reported Jul 27 8:20 am — Aug 11 8:50 am, Mörfelden-Walldorf. Weather by CustomWeather, © 2022

Note: Actual official high and low records may vary slightly from our data, if they occured in-between our weather recording intervals... More about our weather records

Mörfelden-Walldorf Weather History for the Previous 24 Hours

Scroll right to see more
 ConditionsComfort  
Time TempWeatherWind HumidityBarometerVisibility
8:50 am
Thu, Aug 11
73 °FSunny.8 mph38%30.18 "Hg10 mi
8:20 am72 °FSunny.8 mph41%30.18 "Hg10 mi
7:50 am70 °FSunny.9 mph43%30.18 "Hg10 mi
7:20 am70 °FSunny.8 mph43%30.18 "Hg10 mi
6:20 am66 °FSunny.7 mph49%30.18 "Hg10 mi
5:50 am66 °FClear.7 mph49%30.18 "Hg10 mi
5:20 am68 °FClear.8 mph46%30.18 "Hg10 mi
4:50 am68 °FClear.9 mph46%30.18 "Hg10 mi
4:20 am68 °FClear.8 mph46%30.18 "Hg10 mi
3:50 am70 °FClear.8 mph43%30.18 "Hg10 mi
3:20 am70 °FClear.8 mph43%30.18 "Hg10 mi
2:50 am70 °FClear.7 mph43%30.18 "Hg10 mi
1:20 am72 °FClear.7 mph41%30.18 "Hg10 mi
12:50 am73 °FClear.7 mph38%30.18 "Hg10 mi
12:20 am73 °FClear.9 mph38%30.18 "Hg10 mi
11:50 pm
Wed, Aug 10
75 °FClear.10 mph36%30.18 "Hg10 mi
11:20 pm75 °FClear.10 mph36%30.18 "Hg10 mi
10:50 pm77 °FClear.9 mph34%30.18 "Hg10 mi
10:20 pm79 °FClear.12 mph32%30.15 "Hg10 mi
9:20 pm81 °FClear.7 mph26%30.15 "Hg10 mi
8:50 pm82 °FPassing clouds.8 mph25%30.15 "HgN/A
8:20 pm84 °FSunny.8 mph23%30.15 "Hg10 mi
7:50 pm86 °FPassing clouds.10 mph20%30.15 "HgN/A
7:20 pm86 °FPassing clouds.9 mph20%30.15 "HgN/A
6:50 pm88 °FPassing clouds.9 mph19%30.15 "HgN/A
6:20 pm88 °FPassing clouds.13 mph19%30.15 "HgN/A
5:50 pm88 °FPassing clouds.8 mph21%30.15 "HgN/A
5:20 pm88 °FPassing clouds.10 mph21%30.18 "HgN/A
4:50 pm88 °FPassing clouds.14 mph21%30.15 "HgN/A
4:20 pm88 °FSunny.13 mph21%30.18 "Hg10 mi
3:20 pm88 °FPassing clouds.12 mph21%30.21 "HgN/A
2:50 pm88 °FPassing clouds.12 mph22%30.21 "HgN/A
2:20 pm86 °FPassing clouds.12 mph24%30.21 "HgN/A
1:50 pm84 °FPassing clouds.8 mph25%30.21 "HgN/A
1:20 pm84 °FPassing clouds.10 mph27%30.24 "HgN/A
12:50 pm82 °FPassing clouds.12 mph28%30.24 "HgN/A
12:20 pm84 °FPassing clouds.9 mph27%30.24 "HgN/A
11:50 am82 °FPassing clouds.10 mph28%30.27 "HgN/A
10:50 am81 °FPassing clouds.7 mph32%30.27 "HgN/A
10:20 am77 °FPassing clouds.7 mph36%30.27 "HgN/A
Weather by CustomWeather, © 2022

See weather overview